| time (UTC) | temp F | wind direction | speed MPH | gust MPH | rain 1hr in | rain 24hr in | rain mn in | humidity % | barometer mb |
| 20260510021544 | 71 | 337 | 0.0 | 0.0 | 0.00 | 0.00 | 0.00 | 47 | 1015.0 |
| 20260510020032 | 72 | 337 | 0.0 | 0.0 | 0.00 | 0.00 | 0.00 | 47 | 1015.1 |
| 20260510013035 | 72 | 337 | 0.0 | 0.0 | 0.00 | 0.00 | 0.00 | 51 | 1015.3 |
| 20260510011531 | 74 | 337 | 0.0 | 1.0 | 0.00 | 0.00 | 0.00 | 47 | 1015.4 |
| 20260510010035 | 76 | 337 | 0.0 | 1.0 | 0.00 | 0.00 | 0.00 | 45 | 1015.5 |
| 20260510003106 | 78 | 337 | 0.0 | 1.0 | 0.00 | 0.00 | 0.00 | 34 | 1015.7 |
| 20260510001535 | 77 | 49 | 0.0 | 4.0 | 0.00 | 0.00 | 0.00 | 36 | 1015.6 |
| 20260510000106 | 79 | 99 | 0.0 | 3.0 | 0.00 | 0.00 | 0.00 | 34 | 1015.9 |
| 20260509234535 | 79 | 84 | 0.0 | 4.0 | 0.00 | 0.00 | 0.00 | 30 | 1016.1 |
| 20260509233037 | 78 | 121 | 0.0 | 4.0 | 0.00 | 0.00 | 0.00 | 32 | 1016.2 |
| 20260509231531 | 78 | 63 | 1.0 | 5.0 | 0.00 | 0.00 | 0.00 | 31 | 1016.6 |
| 20260509224536 | 78 | 154 | 0.0 | 3.0 | 0.00 | 0.00 | 0.00 | 35 | 1017.1 |
| 20260509223106 | 78 | 32 | 0.0 | 4.0 | 0.00 | 0.00 | 0.00 | 35 | 1017.4 |
| 20260509221537 | 77 | 355 | 0.0 | 5.0 | 0.00 | 0.00 | 0.00 | 35 | 1017.6 |
| 20260509220037 | 76 | 10 | 2.0 | 6.0 | 0.00 | 0.00 | 0.00 | 36 | 1017.8 |
| 20260509214534 | 76 | 23 | 1.0 | 7.0 | 0.00 | 0.00 | 0.00 | 34 | 1018.1 |
| 20260509213035 | 75 | 35 | 1.0 | 7.0 | 0.00 | 0.00 | 0.00 | 34 | 1018.3 |
| 20260509211653 | 75 | 351 | 3.0 | 8.0 | 0.00 | 0.00 | 0.00 | 34 | 1018.5 |
| 20260509210035 | 75 | 354 | 2.0 | 6.0 | 0.00 | 0.00 | 0.00 | 35 | 1018.8 |
| 20260509204538 | 75 | 359 | 2.0 | 7.0 | 0.00 | 0.00 | 0.00 | 35 | 1018.9 |
| 20260509203035 | 75 | 19 | 1.0 | 6.0 | 0.00 | 0.00 | 0.00 | 37 | 1019.1 |
| 20260509201533 | 75 | 23 | 1.0 | 4.0 | 0.00 | 0.00 | 0.00 | 39 | 1019.3 |
| 20260509200031 | 73 | 24 | 2.0 | 7.0 | 0.00 | 0.00 | 0.00 | 41 | 1019.6 |
| 20260509194529 | 73 | 338 | 2.0 | 7.0 | 0.00 | 0.00 | 0.00 | 43 | 1019.9 |
| 20260509193033 | 72 | 351 | 2.0 | 7.0 | 0.00 | 0.00 | 0.00 | 44 | 1020.1 |
| 20260509191529 | 71 | 333 | 2.0 | 6.0 | 0.00 | 0.00 | 0.00 | 46 | 1020.3 |
| 20260509190031 | 70 | 10 | 1.0 | 5.0 | 0.00 | 0.00 | 0.00 | 49 | 1020.5 |
| 20260509184536 | 68 | 336 | 2.0 | 7.0 | 0.00 | 0.00 | 0.00 | 51 | 1020.7 |
| 20260509183033 | 68 | 320 | 2.0 | 6.0 | 0.00 | 0.00 | 0.00 | 52 | 1020.9 |
| 20260509181536 | 67 | 344 | 2.0 | 5.0 | 0.00 | 0.00 | 0.00 | 53 | 1021.1 |
| 20260509180032 | 67 | 329 | 2.0 | 5.0 | 0.00 | 0.00 | 0.00 | 55 | 1021.1 |
| 20260509174530 | 65 | 341 | 1.0 | 4.0 | 0.00 | 0.00 | 0.00 | 57 | 1021.1 |
| 20260509173033 | 65 | 10 | 1.0 | 5.0 | 0.00 | 0.00 | 0.00 | 58 | 1021.3 |
| 20260509171530 | 64 | 42 | 1.0 | 5.0 | 0.00 | 0.00 | 0.00 | 60 | 1021.5 |
| 20260509170106 | 63 | 360 | 1.0 | 6.0 | 0.00 | 0.00 | 0.00 | 61 | 1021.8 |
| 20260509163037 | 60 | 241 | 0.0 | 3.0 | 0.00 | 0.00 | 0.00 | 67 | 1022.0 |
| 20260509161534 | 59 | 339 | 0.0 | 4.0 | 0.00 | 0.00 | 0.00 | 68 | 1022.2 |
| 20260509160031 | 58 | 342 | 1.0 | 4.0 | 0.00 | 0.00 | 0.00 | 70 | 1022.5 |
| 20260509154536 | 56 | 357 | 0.0 | 3.0 | 0.00 | 0.00 | 0.00 | 72 | 1022.6 |
| 20260509153106 | 55 | 332 | 0.0 | 3.0 | 0.00 | 0.00 | 0.00 | 74 | 1022.5 |
| 20260509151535 | 54 | 30 | 0.0 | 3.0 | 0.00 | 0.00 | 0.00 | 76 | 1022.5 |
| 20260509150035 | 53 | 90 | 0.0 | 1.0 | 0.00 | 0.00 | 0.00 | 79 | 1022.6 |
| 20260509143031 | 49 | 157 | 0.0 | 0.0 | 0.00 | 0.00 | 0.00 | 86 | 1022.6 |
| 20260509141533 | 47 | 196 | 0.0 | 0.0 | 0.00 | 0.00 | 0.00 | 90 | 1022.5 |
| 20260509140034 | 45 | 202 | 0.0 | 1.0 | 0.00 | 0.00 | 0.00 | 91 | 1022.4 |
| 20260509134537 | 43 | 259 | 0.0 | 1.0 | 0.00 | 0.00 | 0.00 | 91 | 1022.4 |
| 20260509133034 | 42 | 279 | 0.0 | 0.0 | 0.00 | 0.00 | 0.00 | 91 | 1022.3 |
| 20260509130033 | 42 | 263 | 0.0 | 1.0 | 0.00 | 0.00 | 0.00 | 89 | 1021.9 |
| 20260509124606 | 43 | 337 | 0.0 | 0.0 | 0.00 | 0.00 | 0.00 | 89 | 1021.8 |
| 20260509121537 | 45 | 337 | 0.0 | 1.0 | 0.00 | 0.00 | 0.00 | 88 | 1021.8 |
| 20260509120032 | 46 | 251 | 0.0 | 3.0 | 0.00 | 0.00 | 0.00 | 88 | 1021.7 |
| 20260509114606 | 45 | 187 | 1.0 | 4.0 | 0.00 | 0.00 | 0.00 | 87 | 1021.6 |
| 20260509113035 | 45 | 196 | 0.0 | 4.0 | 0.00 | 0.00 | 0.00 | 85 | 1021.6 |
| 20260509111538 | 47 | 216 | 0.0 | 3.0 | 0.00 | 0.00 | 0.00 | 84 | 1021.6 |
| 20260509110035 | 48 | 157 | 1.0 | 3.0 | 0.00 | 0.00 | 0.00 | 81 | 1021.6 |
| 20260509104536 | 50 | 183 | 0.0 | 4.0 | 0.00 | 0.00 | 0.00 | 77 | 1021.6 |
| 20260509103036 | 53 | 210 | 0.0 | 3.0 | 0.00 | 0.00 | 0.00 | 73 | 1021.7 |
| 20260509100032 | 55 | 234 | 0.0 | 6.0 | 0.00 | 0.00 | 0.00 | 72 | 1021.7 |
| 20260509094643 | 55 | 243 | 1.0 | 6.0 | 0.00 | 0.00 | 0.00 | 73 | 1021.7 |
| 20260509091533 | 55 | 241 | 0.0 | 6.0 | 0.00 | 0.00 | 0.00 | 72 | 1021.9 |
| 20260509090034 | 56 | 294 | 0.0 | 6.0 | 0.00 | 0.00 | 0.00 | 71 | 1022.0 |
| 20260509084535 | 0 | 0 | 0.0 | 0.0 | 0.00 | 0.00 | 0.00 | 100 | |
| 20260509083035 | 55 | 278 | 0.0 | 7.0 | 0.00 | 0.00 | 0.00 | 72 | 1022.3 |
| 20260509080035 | 52 | 232 | 1.0 | 5.0 | 0.00 | 0.00 | 0.00 | 79 | 1022.5 |
| 20260509074534 | 50 | 192 | 0.0 | 6.0 | 0.00 | 0.00 | 0.00 | 79 | 1022.5 |
| 20260509073039 | 52 | 294 | 0.0 | 1.0 | 0.00 | 0.00 | 0.00 | 76 | 1022.4 |
| 20260509071536 | 53 | 333 | 0.0 | 4.0 | 0.00 | 0.00 | 0.00 | 76 | 1022.4 |
| 20260509070034 | 53 | 225 | 0.0 | 1.0 | 0.00 | 0.00 | 0.00 | 76 | 1022.5 |
| 20260509064530 | 52 | 239 | 0.0 | 4.0 | 0.00 | 0.00 | 0.00 | 78 | 1022.7 |
| 20260509063031 | 51 | 271 | 0.0 | 2.0 | 0.00 | 0.00 | 0.00 | 77 | 1022.8 |
| 20260509060031 | 53 | 246 | 0.0 | 2.0 | 0.00 | 0.00 | 0.00 | 72 | 1022.7 |
| 20260509054536 | 54 | 212 | 0.0 | 2.0 | 0.00 | 0.00 | 0.00 | 68 | 1022.6 |
| 20260509051530 | 55 | 224 | 0.0 | 2.0 | 0.00 | 0.00 | 0.00 | 67 | 1022.6 |
| 20260509050107 | 56 | 194 | 0.0 | 3.0 | 0.00 | 0.00 | 0.00 | 65 | 1022.5 |
| 20260509044535 | 57 | 182 | 0.0 | 3.0 | 0.00 | 0.00 | 0.00 | 63 | 1022.4 |
| 20260509043032 | 58 | 196 | 1.0 | 5.0 | 0.00 | 0.00 | 0.00 | 62 | 1022.1 |
| 20260509041608 | 59 | 247 | 1.0 | 5.0 | 0.00 | 0.00 | 0.00 | 62 | 1021.9 |
| 20260509034651 | 57 | 247 | 0.0 | 7.0 | 0.00 | 0.00 | 0.00 | 61 | 1021.6 |
| 20260509031536 | 59 | 245 | 0.0 | 4.0 | 0.00 | 0.00 | 0.00 | 58 | 1021.2 |
| 20260509030033 | 60 | 258 | 0.0 | 5.0 | 0.00 | 0.00 | 0.00 | 56 | 1021.0 |
| 20260509024530 | 61 | 241 | 0.0 | 6.0 | 0.00 | 0.00 | 0.00 | 54 | 1020.9 |
| 20260509023037 | 62 | 259 | 0.0 | 5.0 | 0.00 | 0.00 | 0.00 | 53 | 1020.9 |